TimeMDT,TemperatureF,Dew PointF,Humidity,Sea Level PressureIn,VisibilityMPH,Wind Direction,Wind SpeedMPH,Gust SpeedMPH,PrecipitationIn,Events,Conditions,WindDirDegrees,DateUTC
12:53 AM,32.0,23.0,69,30.14,10.0,West,6.9,-,N/A,,Clear,260,2012-10-07 06:53:00
1:53 AM,33.1,25.0,72,30.14,10.0,WNW,6.9,-,N/A,,Overcast,290,2012-10-07 07:53:00
2:53 AM,33.1,26.1,75,30.12,10.0,WNW,6.9,-,N/A,,Mostly Cloudy,300,2012-10-07 08:53:00
3:53 AM,33.1,27.0,78,30.11,10.0,West,6.9,-,N/A,,Scattered Clouds,280,2012-10-07 09:53:00
4:53 AM,33.1,28.9,85,30.09,10.0,West,6.9,-,N/A,,Clear,280,2012-10-07 10:53:00
5:53 AM,34.0,32.0,92,30.09,10.0,NW,6.9,-,N/A,,Mostly Cloudy,310,2012-10-07 11:53:00
6:53 AM,35.1,32.0,89,30.09,10.0,Calm,Calm,-,N/A,,Clear,0,2012-10-07 12:53:00
7:53 AM,37.0,34.0,89,30.08,10.0,West,4.6,-,N/A,,Clear,280,2012-10-07 13:53:00
8:53 AM,44.1,36.0,73,30.07,10.0,WNW,10.4,-,N/A,,Clear,290,2012-10-07 14:53:00
9:53 AM,48.0,36.0,63,30.06,10.0,West,12.7,-,N/A,,Clear,270,2012-10-07 15:53:00
10:53 AM,51.1,35.1,54,30.05,10.0,West,13.8,-,N/A,,Clear,280,2012-10-07 16:53:00
11:53 AM,55.0,36.0,49,30.01,10.0,West,12.7,-,N/A,,Clear,280,2012-10-07 17:53:00
12:53 PM,57.9,35.1,42,29.98,10.0,WNW,16.1,24.2,N/A,,Clear,290,2012-10-07 18:53:00
1:53 PM,60.1,35.1,39,29.94,10.0,West,20.7,25.3,N/A,,Scattered Clouds,280,2012-10-07 19:53:00
2:53 PM,60.1,34.0,38,29.92,10.0,West,9.2,-,N/A,,Clear,270,2012-10-07 20:53:00
3:53 PM,61.0,32.0,34,29.89,10.0,West,13.8,-,N/A,,Clear,270,2012-10-07 21:53:00
4:53 PM,63.0,30.9,30,29.86,10.0,West,15.0,-,N/A,,Clear,280,2012-10-07 22:53:00
5:53 PM,60.1,33.1,36,29.85,10.0,West,6.9,-,N/A,,Clear,260,2012-10-07 23:53:00
6:53 PM,55.9,34.0,44,29.84,10.0,SW,6.9,-,N/A,,Scattered Clouds,220,2012-10-08 00:53:00
7:53 PM,55.9,34.0,44,29.83,10.0,SW,9.2,-,N/A,,Overcast,230,2012-10-08 01:53:00
8:53 PM,57.0,32.0,39,29.81,10.0,WSW,12.7,-,N/A,,Overcast,250,2012-10-08 02:53:00
9:53 PM,57.0,30.9,37,29.80,10.0,West,12.7,-,N/A,,Overcast,280,2012-10-08 03:53:00
10:53 PM,55.9,32.0,40,29.78,10.0,West,11.5,-,N/A,,Overcast,260,2012-10-08 04:53:00
11:53 PM,55.0,33.1,43,29.76,10.0,West,12.7,-,N/A,,Overcast,260,2012-10-08 05:53:00